Weather History for Abbeville, LA

Change the Weather History Date:

Monday, March 4, 2013

  Actual Average (KARA) Record (KARA)
Temperature  
Mean Temperature 60 °F 60 °F  
Max Temperature 72 °F 70 °F 80 °F (1976)
Min Temperature 48 °F 49 °F 25 °F (2002)
Degree Days  
Heating Degree Days 5 7  
Month to date heating degree days 28  
Since 1 July heating degree days 1244  
Cooling Degree Days 0 1  
Month to date cooling degree days 4  
Year to date cooling degree days 35  
Growing Degree Days 10 (Base 50)    
Moisture  
Dew Point 57 °F    
Average Humidity 84    
Maximum Humidity 100    
Minimum Humidity 61    
Precipitation  
Precipitation 0.00 in 0.14 in 1.68 in (1973)
Month to date precipitation 0.57  
Year to date precipitation 9.98  
Sea Level Pressure  
Sea Level Pressure 30.00 in    
Wind  
Wind Speed 10 mph (SSE)    
Max Wind Speed 25 mph    
Max Gust Speed 31 mph    
Visibility 10 miles    
Events      
T = Trace of Precipitation, MM = Missing Value Source: NWS Daily Summary

Daily Weather History Graph

Daily Weather History Graph

Search for Another Location

Airport:

Trip Planner

Search our weather history database for the weather conditions in past years. The results will help you decide how hot, cold, wet, or windy it might be!

Date:

Astronomy

Mar. 04, 2013 Rise Set
Actual Time 6:30 AM CST 6:09 PM CST
Civil Twilight 6:06 AM CST 6:33 PM CST
Nautical Twilight 5:38 AM CST 7:01 PM CST
Astronomical Twilight 5:11 AM CST 7:29 PM CST
Moon 12:23 AM CST (3/4) 11:09 AM CST (3/4)
Length of Visible Light 12h 26m
Length of Day
11h 39m
Waning Gibbous, 52% of the Moon is Illuminated
Mar 4
Waning Gibbous
Mar 4
Last Quarter
Mar 11
New
Mar 19
First Quarter
Mar 27
Full

Hourly Weather History & Observations

Time (CST) Temp. Dew Point Humidity Pressure Visibility Wind Dir Wind Speed Gust Speed Precip Events Conditions
12:15 AM 48.4 °F 45.9 °F 91% 30.11 in 10.0 mi SSE 6.9 mph - N/A   Clear
12:35 AM 49.1 °F 46.6 °F 91% 30.10 in 10.0 mi SSE 6.9 mph - N/A   Clear
12:55 AM 48.7 °F 46.8 °F 93% 30.10 in 10.0 mi SSE 5.8 mph - N/A   Clear
1:15 AM 48.9 °F 46.9 °F 93% 30.10 in 10.0 mi SE 4.6 mph - N/A   Clear
1:35 AM 49.3 °F 47.5 °F 94% 30.10 in 10.0 mi SE 4.6 mph - N/A   Clear
1:55 AM 49.1 °F 48.0 °F 96% 30.09 in 10.0 mi SSE 5.8 mph - N/A   Clear
2:15 AM 48.2 °F 47.8 °F 99% 30.08 in 10.0 mi SSE 5.8 mph - N/A   Clear
2:35 AM 48.6 °F 48.4 °F 99% 30.08 in 10.0 mi SSE 5.8 mph - N/A   Clear
2:55 AM 48.9 °F 48.9 °F 100% 30.07 in 10.0 mi SSE 5.8 mph - N/A   Clear
3:15 AM 49.3 °F 49.3 °F 100% 30.07 in 10.0 mi SSE 4.6 mph - N/A   Clear
3:35 AM 49.3 °F 49.3 °F 100% 30.06 in 10.0 mi SE 4.6 mph - N/A   Clear
3:55 AM 49.1 °F 49.1 °F 100% 30.06 in 10.0 mi SE 4.6 mph - N/A   Clear
4:15 AM 50.2 °F 50.2 °F 100% 30.06 in 10.0 mi SE 5.8 mph - N/A   Clear
4:35 AM 50.2 °F 50.2 °F 100% 30.06 in 10.0 mi SE 5.8 mph - N/A   Clear
5:15 AM 50.4 °F 50.4 °F 100% 30.05 in 10.0 mi SSE 6.9 mph - N/A   Clear
6:15 AM 51.8 °F 51.8 °F 100% 30.04 in 10.0 mi SSE 6.9 mph - N/A   Clear
6:35 AM 52.7 °F 52.0 °F 97% 30.04 in 10.0 mi SSE 8.1 mph - N/A   Clear
6:55 AM 54.0 °F 53.4 °F 98% 30.04 in 10.0 mi SSE 8.1 mph - N/A   Clear
7:15 AM 55.9 °F 54.5 °F 95% 30.05 in 10.0 mi SSE 6.9 mph - N/A   Clear
7:35 AM 58.1 °F 56.3 °F 94% 30.05 in 10.0 mi SSE 8.1 mph - N/A   Clear
7:55 AM 60.1 °F 56.8 °F 89% 30.05 in 10.0 mi SSE 9.2 mph - N/A   Clear
8:15 AM 61.9 °F 57.2 °F 85% 30.04 in 10.0 mi SSE 15.0 mph 20.7 mph N/A   Clear
8:35 AM 63.7 °F 57.4 °F 80% 30.04 in 10.0 mi SSE 15.0 mph 18.4 mph N/A   Clear
8:55 AM 64.8 °F 56.8 °F 75% 30.05 in 10.0 mi South 16.1 mph 24.2 mph N/A   Clear
9:15 AM 66.0 °F 56.7 °F 72% 30.05 in 10.0 mi SSE 19.6 mph 26.5 mph N/A   Clear
9:55 AM 67.6 °F 57.0 °F 69% 30.04 in 10.0 mi SSE 16.1 mph 27.6 mph N/A   Clear
10:15 AM 69.1 °F 57.6 °F 67% 30.05 in 10.0 mi SSE 17.3 mph 23.0 mph N/A   Clear
10:35 AM 70.3 °F 57.4 °F 63% 30.04 in 10.0 mi South 21.9 mph 31.1 mph N/A   Mostly Cloudy
10:55 AM 70.2 °F 57.2 °F 63% 30.03 in 10.0 mi SSE 23.0 mph 31.1 mph N/A   Overcast
11:15 AM 70.9 °F 57.2 °F 62% 30.03 in 10.0 mi South 19.6 mph 26.5 mph N/A   Overcast
11:35 AM 71.6 °F 57.6 °F 61% 30.02 in 10.0 mi SSE 25.3 mph 29.9 mph N/A   Overcast
11:55 AM 72.0 °F 58.1 °F 62% 30.01 in 10.0 mi SSE 20.7 mph 27.6 mph N/A   Overcast
12:15 PM 70.7 °F 58.1 °F 64% 30.00 in 10.0 mi SSE 20.7 mph 27.6 mph N/A   Overcast
12:35 PM 72.3 °F 58.1 °F 61% 30.00 in 10.0 mi South 19.6 mph 27.6 mph N/A   Overcast
12:55 PM 72.9 °F 59.0 °F 62% 29.99 in 10.0 mi South 19.6 mph 27.6 mph N/A   Overcast
1:15 PM 72.5 °F 59.0 °F 62% 29.98 in 10.0 mi South 19.6 mph 24.2 mph N/A   Mostly Cloudy
1:35 PM 71.4 °F 59.2 °F 65% 29.97 in 10.0 mi South 19.6 mph 25.3 mph N/A   Overcast
1:55 PM 71.8 °F 59.7 °F 66% 29.96 in 10.0 mi South 18.4 mph 24.2 mph N/A   Overcast
2:15 PM 71.1 °F 59.5 °F 67% 29.96 in 10.0 mi South 17.3 mph 26.5 mph N/A   Overcast
2:35 PM 71.1 °F 59.7 °F 67% 29.96 in 10.0 mi SSE 16.1 mph 25.3 mph N/A   Overcast
2:55 PM 71.4 °F 60.1 °F 67% 29.95 in 10.0 mi South 19.6 mph 24.2 mph N/A   Overcast
3:15 PM 70.7 °F 60.3 °F 69% 29.95 in 10.0 mi South 16.1 mph 21.9 mph N/A   Overcast
3:35 PM 70.2 °F 60.4 °F 71% 29.95 in 10.0 mi South 16.1 mph 19.6 mph N/A   Overcast
3:55 PM 70.2 °F 60.4 °F 71% 29.94 in 10.0 mi SSE 13.8 mph 21.9 mph N/A   Overcast
4:15 PM 69.6 °F 60.8 °F 73% 29.93 in 10.0 mi South 17.3 mph 23.0 mph N/A   Overcast
4:35 PM 69.3 °F 60.8 °F 74% 29.94 in 10.0 mi South 12.7 mph 19.6 mph N/A   Overcast
4:55 PM 68.5 °F 61.2 °F 77% 29.93 in 10.0 mi South 13.8 mph 19.6 mph N/A   Mostly Cloudy
5:15 PM 68.0 °F 61.3 °F 79% 29.93 in 10.0 mi South 10.4 mph 16.1 mph N/A   Overcast
5:35 PM 67.1 °F 61.3 °F 82% 29.93 in 10.0 mi South 12.7 mph 18.4 mph N/A   Overcast
6:15 PM 66.2 °F 61.7 °F 85% 29.92 in 10.0 mi South 10.4 mph - N/A   Overcast
6:35 PM 65.3 °F 61.7 °F 88% 29.92 in 10.0 mi South 11.5 mph 16.1 mph N/A   Mostly Cloudy
6:55 PM 64.8 °F 61.7 °F 90% 29.92 in 10.0 mi South 11.5 mph - N/A   Mostly Cloudy
7:15 PM 65.3 °F 62.1 °F 89% 29.92 in 10.0 mi South 11.5 mph 16.1 mph N/A   Overcast
7:35 PM 64.9 °F 62.1 °F 90% 29.91 in 10.0 mi South 12.7 mph - N/A   Overcast
7:55 PM 64.9 °F 62.4 °F 92% 29.90 in 10.0 mi South 15.0 mph 19.6 mph N/A   Overcast
8:15 PM 64.6 °F 62.6 °F 93% 29.92 in 10.0 mi South 9.2 mph 16.1 mph N/A   Overcast
8:35 PM 64.9 °F 63.0 °F 93% 29.92 in 10.0 mi South 9.2 mph - N/A   Overcast
8:55 PM 64.9 °F 63.0 °F 93% 29.93 in 10.0 mi South 9.2 mph - N/A   Overcast
9:35 PM 64.8 °F 63.0 °F 94% 29.93 in 10.0 mi SSE 9.2 mph - N/A   Overcast
9:55 PM 64.6 °F 63.0 °F 94% 29.93 in 10.0 mi SSE 9.2 mph - N/A   Overcast
10:15 PM 64.4 °F 63.0 °F 95% 29.94 in 10.0 mi SSE 8.1 mph - N/A   Overcast
10:35 PM 64.0 °F 63.0 °F 96% 29.94 in 10.0 mi South 8.1 mph - N/A   Overcast
10:55 PM 63.7 °F 63.0 °F 97% 29.93 in 10.0 mi South 8.1 mph - N/A   Overcast
11:15 PM 63.5 °F 63.0 °F 98% 29.93 in 10.0 mi South 8.1 mph - N/A   Overcast
11:35 PM 63.3 °F 63.0 °F 99% 29.93 in 10.0 mi South 8.1 mph - N/A   Overcast
11:55 PM 63.3 °F 63.0 °F 99% 29.92 in 10.0 mi South 8.1 mph - N/A   Overcast